Location: Austin
(30.3000°N, 97.7500°W)
Time: 01:22:26
(UTC-05:00)

ATLAS 5 CENTAUR R/B - Pass Details

Date: 15 May 2024
Orbit: 421 x 1169 km, 63.3° (Epoch: 19 May)

Event Time Altitude Azimuth Distance (km) Brightness Sun altitude
Rises 21:41:00 0° 343° (NNW) 3,138 6.0 -16.4°
Reaches altitude 10° 21:43:24 10° 353° (N) 2,332 5.1 -16.9°
Maximum altitude 21:48:22 34° 58° (ENE) 1,422 3.2 -17.7°
Enters shadow 21:50:51 25° 99° (E) 1,790 3.4 -18.2°
